STARLINK-11172, 60193

Orbit data source: Space-Track

STARLINK-11172, 60193 is a payload satellite owned by SpaceX/Seattle (US) in LEO that was launched on Wed, 03 Jul 2024 UTC via an FALCON 9 launch vehicle from the Air Force Eastern Test Range (AFETR). Payload-class satellites include a variety of spacecraft equipped with specific instruments for various scientific and technological missions. These include communications satellites like Starlink; space stations such as the ISS; scientific satellites like the Hubble; Earth observation satellites from companies like Planet Labs, Umbra, and HawkEye 360; GPS; miniature CubeSats for education and research; and military/defense satellites.

Loading next visibility...
Identifier
60193, 2024-124L
Orbit
LEO
Last TLE update
15 hours ago
Origin
Manufacturer
SpaceX/Seattle
Mission
Operational Commercial Communications
Bus & Motor
STARLINK V2M, Unknown motor
Mass
730 kg wet, ~700 kg dry
Launch date (UTC)
2024-07-03 (1 year ago)
Launch vehicle
FALCON 9
Launch site
Air Force Eastern Test Range (AFETR)
Object type
Payload
Rocket body
Debris
Shape & HBR
Box + 2 Pan, 29 m
Radar Cross Section
36.964 m², Large (>1 m²)

Expand to show TLE details & history

TLE from 15 hours ago
0 STARLINK-11172
1 60193U 24124L   25191.49639007  .00001112  00000-0  14039-4 0  9994
2 60193  53.1589 275.2697 0001488  77.5073 282.6111 15.69714622 58490
Epoch: 2025-07-10T11:54Z
TLE epoch observation values (Epoch: 2025-07-10T11:54:48.102Z)
Latitude
-0.00002°
Longitude
167.90742°
Altitude
360.41 km
Speed
7.694 km/s
True Right ascension
18h 21m 04s
True Declination
0° 00' 00"
Sunlit
Object was in full shadow at epoch
Visualization orbit readout
Latitude
-51.44364°
Longitude
54.04248°
Altitude
378.511 km
Speed
7.682 km/s
Apparent Right ascension
06h 26m 40s
Apparent Declination
-62° 25' 36"
Sunlit
Object is in daylight
Visualization observer readout
Local Sidereal Time
15:02:01
Azimuth
216.146° SW
Elevation
-52.318°
Doppler factor
1
Orbital elements
Apogee altitude
360.977 km
Perigee altitude
358.972 km
Semi-major axis
6,738.111 km
Eccentricity
0.00015
Inclination
53.1589°
RAAN
275.2697°
Arg. of periapsis
77.5073°
True anomaly
Unknown
Mean anomaly
282.6111°
Eccentric anomaly
Unknown
Mean motion
3.92406 °/min
Orbital period
91.74 mins
BSTAR
0.000014039
Loading maneuver chart data...
Loading SW <> Apogee altitude chart data...
Loading historical data...
Loading historical data...
Loading historical data...
Loading historical data...
Loading historical data...
Loading historical data...
Loading historical data...

STARLINK-11172 Visibility forecast

Observer location: undefined°, undefined°

Span
Click to sort rows by Start time (UTC) header in descending order
Start Az.
Max El. time (UTC)
Max El. Az.
Max El.
End time (UTC)
End Az.
4 mins2025-07-11 07:57:24.324Z205.332° SW2025-07-11 07:59:24.324Z135.513° SSE36.066°2025-07-11 08:01:24.324Z66.313° ENE
4 mins2025-07-11 14:22:24.324Z340.024° N2025-07-11 14:24:24.324Z50.442° ENE26.828°2025-07-11 14:26:24.324Z96.471° ESE
|